Location: Brede
(50.9167°N, 0.6000°E)
Time: 18:13:28
(UTC+00:00)

Vanguard 1 - Visible Passes

Search period start: 04 December 2020 00:00
Search period end: 14 December 2020 00:00
Orbit: 650 x 3833 km, 34.2° (Epoch: 03 December)

Date Brightness Start Highest point End Pass type
(mag) Time Alt. Az. Time Alt. Az. Time Alt. Az.
04 Dec 12.4 03:30:08 11° SE 03:30:08 11° SE 03:31:20 10° SE visible
04 Dec 12.0 05:43:31 10° SW 05:48:25 23° S 05:55:34 10° SE visible
05 Dec 12.1 03:50:01 14° SSE 03:50:01 14° SSE 03:53:06 10° SE visible
05 Dec 12.1 06:04:04 10° SW 06:08:59 22° S 06:16:07 10° SE visible
06 Dec 11.9 04:09:54 16° SSE 04:10:18 16° SSE 04:14:14 10° SE visible
06 Dec 12.1 06:24:47 10° SW 06:29:36 20° S 06:36:26 10° SE visible
07 Dec 11.8 04:29:46 16° S 04:30:46 17° SSE 04:35:05 10° SE visible
07 Dec 12.3 06:45:43 10° SW 06:50:14 18° S 06:56:24 10° SSE visible
08 Dec 11.7 04:49:37 15° SSW 04:51:16 17° S 04:55:43 10° SE visible
08 Dec 12.4 07:07:01 10° SW 07:10:54 15° SSW 07:15:53 10° SSE visible
09 Dec 11.8 05:09:28 13° SSW 05:11:49 16° S 05:16:05 10° SE visible
10 Dec 11.9 05:29:21 10° SW 05:32:24 14° S 05:36:08 10° SSE visible
11 Dec 12.1 05:50:45 10° SSW 05:53:00 12° S 05:55:34 10° SSE visible
12 Dec 12.2 03:56:19 10° SSE 03:56:19 10° SSE 03:56:30 10° SSE visible
13 Dec 12.1 04:16:10 10° SSE 04:16:10 10° SSE 04:16:30 10° SSE visible
